Lexington Weather

Lexington, Massachusetts, USA

43°F
9/20/2020 10:39pm 
  • Lexington Conditions: Clear
  • Temperature: 43.3°F / 6.3°CColder 1.1°F than last hour.
  • Dew Point: 36.9°FDecreased 0.7°Fsince last hour.
  • Relative Humidity: 78%Increased 1.0% since last hour.
  • Wind: Calm, 10-min avg: Calm, gust: None
  • Barometer: 30.53 in Steady
  • Visibility: 10 miles
  • Rain Today: 0.00 in
  •   
Southeast Middlesex County - Special Weather Statement - Special Weather Statement
 - SEE ALL NEARBY ALERTS -

Regional Weather Roundup
for Boston / Norton, MA

        
000
ASUS41 KBOX 171704
RWRBOX

REGIONAL WEATHER ROUNDUP
NATIONAL WEATHER SERVICE BOSTON/NORTON MA
100 PM EDT THU SEP 17 2020

NOTE:  "FAIR" INDICATES FEW OR NO CLOUDS BELOW 12,000 FEET WITH NO 
SIGNIFICANT WEATHER AND/OR OBSTRUCTIONS TO VISIBILITY.

MAZALL-171800-
EASTERN MASSACHUSETTS
  
CITY           SKY/WX    TMP DP  RH WIND       PRES   REMARKS
BOSTON         PTSUNNY   74  50  42 SW15      29.99F                  
BEVERLY        MOSUNNY   74  55  51 W7        29.98F                  
LAWRENCE       MOSUNNY   73  57  57 VRB5      30.01F                  
BEDFORD        MOSUNNY   76  55  48 W5        29.98F                  
BLUE HILL        N/A     73  56  54 SW17G24   30.00F                  
NORWOOD        MOSUNNY   77  57  50 SW13G21   29.99F                  
MARSHFIELD     MOSUNNY   75  59  57 VRB7G18   30.00F                  
PLYMOUTH       PTSUNNY   77  59  53 SW14      30.01F                  
TAUNTON        PTSUNNY   76  59  55 S10G17    30.01F                  
NEW BEDFORD    PTSUNNY   76  61  59 SW14G22   30.02S                  
$$

MAZALL-171800-
CAPE COD AND THE ISLANDS
  
CITY           SKY/WX    TMP DP  RH WIND       PRES   REMARKS
FALMOUTH       MOSUNNY   75  63  64 W12G20    30.03F                  
HYANNIS        PTSUNNY   73  63  70 SW16      30.01F                  
CHATHAM        PTSUNNY   75  66  73 SW9G17    30.04F                  
PROVINCETOWN   MOSUNNY   73  62  68 SW13      30.02F                  
NANTUCKET      PTSUNNY   71  65  81 S10       30.05F                  
MARTHAS VNYRD  CLOUDY    73  63  70 S10       30.03F                  
$$
 
MAZALL-171800-
CENTRAL AND WESTERN MASSACHUSETTS
  
CITY           SKY/WX    TMP DP  RH WIND       PRES   REMARKS
WORCESTER      MOSUNNY   70  53  54 W8        30.03F                  
FITCHBURG      MOSUNNY   77  55  46 NW10      30.00F                  
ORANGE         MOSUNNY   73  55  53 NW9       30.01F                  
SPRINGFIELD    PTSUNNY   73  55  52 S3        30.00S                  
WESTFIELD      MOSUNNY   74  57  55 S7        30.00F                  
NORTH ADAMS    MOSUNNY   71  57  61 CALM      30.02F                  
PITTSFIELD     MOSUNNY   69  56  62 VRB5      30.02F                  
$$
 
RIZALL-171800-
RHODE ISLAND
  
CITY           SKY/WX    TMP DP  RH WIND       PRES   REMARKS
PROVIDENCE     PTSUNNY   78  58  49 SW12G18   30.01F                  
NEWPORT        PTSUNNY   73  60  63 S12G18    30.02F                  
BLOCK ISLAND   PTSUNNY   71  62  73 SW12      30.04F                  
SMITHFIELD     PTSUNNY   73  59  61 W13G20    30.02F                  
WESTERLY       PTSUNNY   72  61  68 S7        30.03F                  
$$
 
CTZALL-171800-
CONNECTICUT
  
CITY           SKY/WX    TMP DP  RH WIND       PRES   REMARKS
BRADLEY INTL   CLOUDY    74  54  49 S5        30.01F                  
HARTFORD       MOSUNNY   76  53  44 W5        30.00F                  
BRIDGEPORT     PTSUNNY   73  61  65 SW12      30.03F                  
DANBURY        PTSUNNY   72  57  59 W7        30.04F                  
GROTON         PTSUNNY   71  64  78 S8        30.02F                  
NEW HAVEN      PTSUNNY   73  63  70 S8        30.02F                  
CHESTER        NOT AVBL                                               
MERIDEN        MOSUNNY   75  54  47 VRB3      30.02F                  
WILLIMANTIC    PTSUNNY   74  54  49 SW10      30.02F                  
OXFORD         PTSUNNY   71  58  63 SW6       30.04F                  
$$

MEZ002-015-021-024-NHZ003-005-008-011-012-014-VTZ005-008-171800-
NORTHERN NEW ENGLAND
  
CITY           SKY/WX    TMP DP  RH WIND       PRES   REMARKS
PORTLAND ME    MOSUNNY   74  57  55 E9        29.98F                  
BANGOR ME      PTSUNNY   73  52  47 NW10      29.98S                  
CONCORD NH     MOSUNNY   74  55  51 VRB6      29.99F                  
MANCHESTER NH  PTSUNNY   76  53  44 W8        29.97F                  
NASHUA NH      MOSUNNY   75  57  53 VRB6      29.99F                  
PORTSMOUTH NH  PTSUNNY   74  54  49 SW5       29.97F                  
JAFFREY NH     MOSUNNY   70  53  54 VRB5      30.02F                  
KEENE NH       MOSUNNY   71  56  58 S5        30.01F                  
BURLINGTON VT  CLOUDY    61  49  64 VRB6      30.07R                  
MT. WASHINGTON FOG       45  45 100 W29         N/A  VSB 1/16         
$$

NYZ052-076-171800-
EASTERN NEW YORK
  
CITY           SKY/WX    TMP DP  RH WIND       PRES   REMARKS
ALBANY         CLOUDY    66  56  70 N7        30.03S                  
NEW YORK CITY  CLOUDY    75  58  55 SW9       30.02F                  
$$
 
ANZALL-171800-
MARINE OBSERVATIONS
  
STATION/POSITION TIME  TEMP    WIND        PRES    VSBY  WAVE
                       AIR SEA DIR/SP/G                  HT/PER
                 (UTC) (F)     (DEG/KT/KT) (MB)    (MI)  (FT/S)
BOSTON BUOY      1650   68 65  230/  6/  6 1014.6F         2/10
BUZZARDS BAY     1600          200/  7/  8 1018.5F
NANTUCKET SOUND  1640      70  210/ 14/ 17   N/A
MASS BAY-STELLWA 1604   64     230/  8/ 10 1013.8F  1 7/8  4/11
ISLE OF SHOALS   1600   65     220/  8/  8 1015.4F
S OF BLOCK IS    1626      70                N/A           4/11
$$

......................KEY.........................
  SKY/WX - SKY CONDITION/PRESENT WEATHER
  TMP    - TEMPERATURE IN FAHRENHEIT
  DWPT   - DEWPOINT IN FAHRENHEIT
  RH     - RELATIVE HUMIDITY IN PERCENT
  WIND   - DIRECTION AND SPEED IN MPH
  PRES   - MEAN SEA LEVEL PRESSURE IN INCHES OF HG
  WCI    - WIND CHILL INDEX
  VSB    - VISIBILITY IN MILES
  HX     - HEAT INDEX
  TC     - TEMPERATURE IN CELSIUS
  VRB    - VARIABLE WIND DIRECTION
  N/A    - NOT AVAILABLE
  
      

Other recent Regional Weather Roundups

Sun Sep 20, 10:04pm

Sun Sep 20, 9:04pm

Sun Sep 20, 8:05pm

Sun Sep 20, 7:04pm

Sun Sep 20, 6:04pm

Sun Sep 20, 5:04pm

Sun Sep 20, 4:04pm

Sun Sep 20, 3:05pm

Sun Sep 20, 2:05pm

Sun Sep 20, 1:04pm

Sun Sep 20, 12:04pm

Sun Sep 20, 11:04am

Sun Sep 20, 10:04am

Sun Sep 20, 9:04am

Sun Sep 20, 8:04am

Sun Sep 20, 7:04am

Sun Sep 20, 6:04am

Sun Sep 20, 5:04am

Sun Sep 20, 4:04am

Sun Sep 20, 3:05am

Sun Sep 20, 2:04am

Sun Sep 20, 1:04am

Sun Sep 20, 12:04am

Sat Sep 19, 11:04pm

Sat Sep 19, 10:04pm

Sat Sep 19, 9:04pm

Sat Sep 19, 8:05pm

Sat Sep 19, 7:04pm

Sat Sep 19, 6:05pm

Sat Sep 19, 5:04pm

Sat Sep 19, 4:04pm

Sat Sep 19, 3:04pm

Sat Sep 19, 2:04pm

Sat Sep 19, 1:05pm

Sat Sep 19, 12:04pm

Sat Sep 19, 11:04am

Sat Sep 19, 10:04am

Sat Sep 19, 9:05am

Sat Sep 19, 8:04am

Sat Sep 19, 7:04am

Sat Sep 19, 6:04am

Sat Sep 19, 5:04am

Sat Sep 19, 4:04am

Sat Sep 19, 3:04am

Sat Sep 19, 2:04am

Sat Sep 19, 1:04am

Sat Sep 19, 12:04am

Fri Sep 18, 11:05pm

Fri Sep 18, 10:04pm

Fri Sep 18, 9:04pm

Fri Sep 18, 8:04pm

Fri Sep 18, 7:04pm

Fri Sep 18, 6:04pm

Fri Sep 18, 5:05pm

Fri Sep 18, 4:04pm

Fri Sep 18, 3:05pm

Fri Sep 18, 2:04pm

Fri Sep 18, 1:04pm

Fri Sep 18, 12:04pm

Fri Sep 18, 11:05am

Fri Sep 18, 10:05am

Fri Sep 18, 9:04am

Fri Sep 18, 8:04am

Fri Sep 18, 7:04am

Fri Sep 18, 6:04am

Fri Sep 18, 5:04am

Fri Sep 18, 4:04am

Fri Sep 18, 3:04am

Fri Sep 18, 2:04am

Fri Sep 18, 1:04am

Fri Sep 18, 12:04am

Thu Sep 17, 11:05pm

Thu Sep 17, 10:04pm

Thu Sep 17, 9:04pm

Thu Sep 17, 8:05pm

Thu Sep 17, 7:04pm

Thu Sep 17, 6:04pm

Thu Sep 17, 5:04pm

Thu Sep 17, 4:04pm

Thu Sep 17, 3:05pm

Thu Sep 17, 2:04pm

Thu Sep 17, 12:04pm

Thu Sep 17, 11:04am

Thu Sep 17, 10:04am

Thu Sep 17, 9:04am

Thu Sep 17, 8:04am

Thu Sep 17, 7:04am

Thu Sep 17, 6:04am

Thu Sep 17, 5:04am

Thu Sep 17, 4:04am

Thu Sep 17, 3:04am

Thu Sep 17, 2:05am

Thu Sep 17, 1:05am

Thu Sep 17, 12:04am

Wed Sep 16, 11:04pm

Wed Sep 16, 10:04pm

Wed Sep 16, 9:04pm

Wed Sep 16, 8:05pm

Wed Sep 16, 7:04pm

Wed Sep 16, 6:04pm

Wed Sep 16, 5:04pm

Wed Sep 16, 4:04pm

Wed Sep 16, 3:04pm

Wed Sep 16, 2:04pm

Wed Sep 16, 1:04pm

Wed Sep 16, 12:04pm

Wed Sep 16, 11:04am

Wed Sep 16, 10:04am

Wed Sep 16, 9:04am

Wed Sep 16, 8:04am

Wed Sep 16, 7:04am

Wed Sep 16, 6:04am

Wed Sep 16, 5:04am

Wed Sep 16, 4:04am

Wed Sep 16, 3:04am

Wed Sep 16, 2:04am

Wed Sep 16, 1:04am

Wed Sep 16, 12:05am

Tue Sep 15, 11:04pm

Tue Sep 15, 10:04pm

Tue Sep 15, 9:04pm

Tue Sep 15, 8:04pm

Tue Sep 15, 7:04pm

Tue Sep 15, 6:04pm

Tue Sep 15, 5:04pm

Tue Sep 15, 4:05pm

Tue Sep 15, 3:04pm

Tue Sep 15, 2:04pm

Tue Sep 15, 1:04pm

Tue Sep 15, 12:04pm

Tue Sep 15, 11:04am

Tue Sep 15, 10:04am

Tue Sep 15, 9:04am

Tue Sep 15, 8:04am

Tue Sep 15, 7:04am

Tue Sep 15, 6:04am

Tue Sep 15, 5:04am

Tue Sep 15, 4:04am

Tue Sep 15, 3:04am

Tue Sep 15, 2:04am

Tue Sep 15, 1:04am

Tue Sep 15, 12:05am

Mon Sep 14, 11:04pm

Mon Sep 14, 10:04pm

Mon Sep 14, 9:04pm

Mon Sep 14, 8:04pm

Mon Sep 14, 7:04pm

Mon Sep 14, 6:04pm

Mon Sep 14, 5:04pm

Mon Sep 14, 4:05pm

Mon Sep 14, 3:04pm

Mon Sep 14, 2:05pm

Mon Sep 14, 1:04pm

Mon Sep 14, 12:04pm

Mon Sep 14, 11:04am

Mon Sep 14, 10:05am

Mon Sep 14, 9:04am

Mon Sep 14, 8:04am

Mon Sep 14, 7:04am

Mon Sep 14, 6:04am

Mon Sep 14, 5:04am

Mon Sep 14, 4:04am

Mon Sep 14, 3:04am

Mon Sep 14, 2:04am

Mon Sep 14, 1:04am

Mon Sep 14, 12:04am

Sun Sep 13, 11:05pm

Meta data:

ID: 529d7ec3-64f3-4926-94a8-c36b053c0958
Link: https://api.weather.gov/products/529d7ec3-64f3-4926-94a8-c36b053c0958